Weather History for Ames, IA

Change the Weather History Date:

Thursday, February 7, 2013

  Actual Average Record
Temperature  
Mean Temperature 32 °F 22 °F  
Max Temperature 36 °F 31 °F 50 °F (1999)
Min Temperature 27 °F 13 °F -11 °F (2003)
Degree Days  
Heating Degree Days 33 43  
Month to date heating degree days 287 304  
Since 1 July heating degree days 4189 4459  
Cooling Degree Days 0 0  
Month to date cooling degree days 0 0  
Year to date cooling degree days 0 0  
Moisture  
Dew Point 29 °F    
Average Humidity 91    
Maximum Humidity 100    
Minimum Humidity 82    
Precipitation  
Precipitation 0.12 in 0.04 in 0.22 in (1986)
Month to date precipitation 0.18 0.22  
Sea Level Pressure  
Sea Level Pressure 30.02 in    
Wind  
Wind Speed 11 mph (NNW)    
Max Wind Speed 24 mph    
Max Gust Speed 29 mph    
Visibility 4 miles    
Events Rain    
T = Trace of Precipitation, MM = Missing Value Source: NWS Daily Summary

Daily Weather History Graph

Daily Weather History Graph

Search for Another Location

Airport:

Trip Planner

Search our weather history database for the weather conditions in past years. The results will help you decide how hot, cold, wet, or windy it might be!

Date:

Astronomy

Feb. 07, 2013 Rise Set
Actual Time 7:20 AM CST 5:37 PM CST
Civil Twilight 6:51 AM CST 6:06 PM CST
Nautical Twilight 6:18 AM CST 6:39 PM CST
Astronomical Twilight 5:45 AM CST 7:12 PM CST
Moon 5:01 AM CST (2/7) 3:01 PM CST (2/7)
Length of Visible Light 11h 15m
Length of Day
10h 17m
Waning Crescent, 9% of the Moon is Illuminated
Feb 7
Waning Crescent
Feb 10
New
Feb 17
First Quarter
Feb 25
Full
Mar 4
Last Quarter

Hourly Weather History & Observations

Time (CST) Temp. Windchill Dew Point Humidity Pressure Visibility Wind Dir Wind Speed Gust Speed Precip Events Conditions
12:53 AM 35.1 °F 31.0 °F 30.9 °F 85% 29.92 in 10.0 mi SSE 4.6 mph - N/A   Partly Cloudy
1:53 AM 36.0 °F - 32.0 °F 86% 29.91 in 10.0 mi Calm Calm - N/A   Overcast
2:53 AM 34.0 °F 31.0 °F 32.0 °F 92% 29.92 in 10.0 mi NNW 3.5 mph - N/A   Overcast
3:53 AM 35.1 °F - 32.0 °F 89% 29.91 in 10.0 mi Calm Calm - N/A   Overcast
4:53 AM 34.0 °F - 32.0 °F 92% 29.91 in 9.0 mi Calm Calm - N/A   Overcast
5:53 AM 34.0 °F 31.0 °F 32.0 °F 92% 29.91 in 7.0 mi North 3.5 mph - N/A   Overcast
6:53 AM 33.1 °F - 33.1 °F 100% 29.92 in 6.0 mi Calm Calm - 0.00 in   Overcast
7:53 AM 34.0 °F 28.0 °F 33.1 °F 96% 29.96 in 4.0 mi NW 6.9 mph - 0.04 in Rain Light Rain
8:03 AM 33.8 °F 27.0 °F 33.8 °F 100% 29.94 in 1.8 mi NNW 8.1 mph - 0.02 in Rain Light Rain
8:26 AM 33.8 °F 26.4 °F 33.8 °F 100% 29.95 in 2.0 mi NNW 9.2 mph - 0.07 in Rain Light Rain
8:38 AM 33.8 °F 25.8 °F 33.8 °F 100% 29.95 in 4.0 mi North 10.4 mph - 0.07 in   Overcast
8:53 AM 34.0 °F 25.0 °F 33.1 °F 96% 29.97 in 3.0 mi NNW 12.7 mph - 0.08 in   Overcast
9:00 AM 33.8 °F 23.9 °F 32.0 °F 93% 29.96 in 1.8 mi NNW 15.0 mph - 0.00 in   Overcast
9:08 AM 33.8 °F 24.3 °F 32.0 °F 93% 29.95 in 2.0 mi North 13.8 mph - 0.00 in   Overcast
9:29 AM 33.8 °F 23.9 °F 30.2 °F 87% 29.96 in 2.0 mi North 15.0 mph - 0.00 in   Overcast
9:39 AM 32.0 °F 20.8 °F 30.2 °F 93% 29.97 in 3.0 mi NNW 17.3 mph - 0.00 in   Overcast
9:53 AM 32.0 °F 22.1 °F 30.9 °F 96% 29.99 in 3.0 mi NNW 13.8 mph - 0.00 in   Overcast
10:08 AM 32.0 °F 22.5 °F 30.2 °F 93% 29.97 in 2.5 mi NNW 12.7 mph - N/A   Overcast
10:22 AM 32.0 °F 22.5 °F 30.2 °F 93% 29.98 in 1.5 mi NNW 12.7 mph - N/A   Overcast
10:44 AM 30.2 °F 19.8 °F 30.2 °F 100% 29.98 in 2.0 mi North 13.8 mph 20.7 mph N/A   Overcast
10:53 AM 32.0 °F 21.6 °F 30.0 °F 92% 30.01 in 2.0 mi NNW 15.0 mph - N/A   Overcast
11:04 AM 30.2 °F 19.3 °F 30.2 °F 100% 29.98 in 1.8 mi North 15.0 mph - N/A   Overcast
11:53 AM 30.9 °F 20.2 °F 30.0 °F 96% 30.01 in 1.5 mi NNW 15.0 mph 20.7 mph N/A   Overcast
12:53 PM 30.0 °F 16.9 °F 28.9 °F 96% 30.02 in 1.8 mi NNW 21.9 mph - N/A   Overcast
1:17 PM 30.2 °F 17.1 °F 28.4 °F 93% 30.00 in 1.8 mi NNW 21.9 mph 28.8 mph N/A   Overcast
1:39 PM 30.2 °F 18.5 °F 28.4 °F 93% 29.99 in 1.8 mi NNW 17.3 mph 24.2 mph N/A   Overcast
1:53 PM 30.0 °F 17.9 °F 28.0 °F 92% 30.02 in 2.0 mi NNW 18.4 mph 26.5 mph N/A   Overcast
2:48 PM 28.4 °F 16.2 °F 28.4 °F 100% 30.01 in 1.8 mi NNW 17.3 mph 24.2 mph N/A   Overcast
2:53 PM 28.9 °F 16.1 °F 28.0 °F 96% 30.04 in 1.8 mi NNW 19.6 mph - N/A   Overcast
3:00 PM 28.4 °F 15.4 °F 26.6 °F 93% 30.01 in 2.0 mi NNW 19.6 mph - N/A   Overcast
3:53 PM 28.9 °F 18.6 °F 28.0 °F 96% 30.06 in 2.0 mi NNW 12.7 mph 23.0 mph N/A   Overcast
4:19 PM 28.4 °F 16.6 °F 26.6 °F 93% 30.05 in 3.0 mi NW 16.1 mph - N/A   Overcast
4:53 PM 28.9 °F 16.5 °F 26.1 °F 89% 30.09 in 4.0 mi NNW 18.4 mph 24.2 mph N/A   Overcast
5:53 PM 28.0 °F 17.0 °F 26.1 °F 92% 30.12 in 5.0 mi NNW 13.8 mph - N/A   Overcast
6:53 PM 28.0 °F 17.5 °F 25.0 °F 88% 30.15 in 6.0 mi NNW 12.7 mph 21.9 mph N/A   Overcast
7:53 PM 28.0 °F 16.5 °F 25.0 °F 88% 30.17 in 6.0 mi North 15.0 mph 23.0 mph N/A   Overcast
8:53 PM 28.0 °F 16.1 °F 25.0 °F 88% 30.18 in 6.0 mi NNW 16.1 mph 23.0 mph N/A   Overcast
9:53 PM 27.0 °F 14.7 °F 25.0 °F 92% 30.20 in 7.0 mi North 16.1 mph 24.2 mph N/A   Overcast
10:28 PM 26.6 °F 13.8 °F 24.8 °F 93% 30.18 in 8.0 mi NNW 17.3 mph - N/A   Overcast
10:53 PM 27.0 °F 13.2 °F 24.1 °F 89% 30.22 in 8.0 mi NNW 20.7 mph 25.3 mph N/A   Overcast
11:53 PM 27.0 °F 16.1 °F 23.0 °F 85% 30.23 in 7.0 mi North 12.7 mph - N/A   Overcast